Regional Weather Roundup
Issued by NWS Grand Forks, ND

Home | Current Version | Previous Version | Text Only | Print | Product List | Glossary Off
Versions: 1 2 3 4 5 6 7 8 9 10 11 12 13 14 15 16 17 18 19 20 21 22 23 24 25 26 27 28 29 30 31 32 33 34 35 36 37 38 39 40 41 42 43 44 45 46 47 48 49 50

000
ASUS43 KFGF 301331
RWRFGF
PRAIRIE TO PINES  WEATHER ROUNDUP
NATIONAL WEATHER SERVICE EASTERN NORTH DAKOTA/GRAND FORKS ND
800 AM CDT MON MAR 30 2015

 **SATELLITE DATA USED TO AUGMENT SKY COVER AT AUTOMATED STATIONS**
 *****  WEATHER ACROSS EASTERN NORTH DAKOTA  *****

CITY           SKY/WX    TMP DP  RH WIND       PRES   REMARKS
GRAND FORKS    CLOUDY    36  32  85 SE6       29.85F
GRAND FRKS AFB CLOUDY    36  32  85 SE5       29.85F
GRAND FRKS NWS   N/A     36 N/A N/A E3          N/A
DEVILS LAKE    CLOUDY    37  32  81 SE8       29.79F
FARGO          CLOUDY    38  30  73 SE7       29.87F
WAHPETON ARPT  CLOUDY    34  28  80 E7        29.87F
$$

 ***** WEATHER ACROSS CENTRAL AND WESTERN NORTH DAKOTA  *****

CITY           SKY/WX    TMP DP  RH WIND       PRES   REMARKS
BISMARCK       PTCLDY    36  29  75 SW3       29.85S
MINOT          PTCLDY    43  31  62 SW15      29.77R
JAMESTOWN      CLOUDY    38  31  76 S8        29.81F
MINOT AFB      MOCLDY    38  37  94 W10       29.76R
GARRISON         N/A     37  30  75 W10       29.81R
WILLISTON      CLEAR     40  32  73 SW5       29.86R
DICKINSON      CLOUDY    43  30  60 W14       29.87S
HETTINGER      MOCLDY    42  29  59 W12       29.94S
$$

 *****  OTHER AIRPORT OBSERVATIONS IN OUR AREA  *****

CITY           SKY/WX    TMP DP  RH WIND       PRES   REMARKS
WALHALLA         N/A     36  36 100 SW5       29.86S
GRAFTON AIRPOR NOT AVBL
VALLEY CITY AR CLOUDY    36  36 100 CALM      29.82S
CANDO          PTSUNNY   36  32  87 E12       29.80F
CAVALIER APRT  FAIR      39  30  70 E5        29.86S
GWINNER        MOSUNNY   37  32  81 S9          N/A
ROLLA          FAIR      36  36 100 CALM      29.81R
 ***** THE ABOVE OBSERVATIONS ARE NON NWS ARE NOT QUALITY
       CONTROLLED AND MAY MIS-REPORT RAIN FOR SNOW...
$$

  *****  WEATHER ACROSS NORTHERN MINNESOTA  *****

CITY           SKY/WX    TMP DP  RH WIND       PRES   REMARKS
FLAG ISLAND    PTCLDY    30  27  86 SE3       29.85F
WARROAD        CLOUDY    34  28  80 S3        29.87S
ROSEAU         CLOUDY    34  28  80 CALM      29.87S
HALLOCK        DRIZZLE   36  30  80 CALM      29.89S
THF RVR FALLS  CLOUDY    39  32  75 N12       29.89S
BAUDETTE       MOCLDY    30  27  88 CALM      29.87S
WASKISH        MOCLDY    30  30 100 CALM      29.88S
CROOKSTON      CLOUDY    34  30  86 SE6       29.88F
$$
  *****  WEATHER ACROSS CENTRAL AND WEST MINNESOTA  *****

CITY           SKY/WX    TMP DP  RH WIND       PRES   REMARKS
FOSSTON        CLOUDY    32  30  93 CALM      29.90R
BEMIDJI        MOCLDY    32  29  87 CALM      29.88F
PARK RAPIDS    CLOUDY    35  30  82 CALM      29.89F
ELBOW LAKE     CLOUDY    34  29  82 E8        29.88F
WADENA         CLOUDY    34  28  80 S3        29.90S
DETROIT LAKES  CLOUDY    36  32  87 CALM      29.90S
MOORHEAD       CLOUDY    36  34  93 SE5       29.88F
FERGUS FALLS   CLOUDY    36  28  75 E5        29.91F
MORRIS MN      CLOUDY    36  30  80 SE7       29.89F
STAPLES        CLOUDY    34  30  86 CALM      29.91F
$$
  *****  WEATHER ELSEWHERE ACROSS MINNESOTA  *****

CITY           SKY/WX    TMP DP  RH WIND       PRES   REMARKS
DULUTH         SUNNY     34  26  72 W7        29.89R
INTRNTL FALLS  CLEAR     27  24  89 CALM      29.87F
ELY            SUNNY     30  25  80 W5        29.87F
CLOQUET        SUNNY     36  27  69 W5        29.91R
WHEATON        CLOUDY    34  28  80 SE6       29.90F
BRAINERD       CLOUDY    32  28  85 S3        29.92S
HIBBING        MOSUNNY   27  22  81 CALM      29.89S
ALEXANDRIA     CLOUDY    35  28  75 CALM      29.92F
SAINT CLOUD    CLOUDY    33  28  81 CALM      29.95R
MINNEAPOLIS    CLOUDY    40  27  59 SW3       29.97F
$$

  *****  WEATHER ACROSS SOUTH DAKOTA  *****

CITY           SKY/WX    TMP DP  RH WIND       PRES   REMARKS
SIOUX FALLS    PTCLDY    38  23  55 SW5       29.98F
BROOKINGS      NOT AVBL
WATERTOWN      PTCLDY    34  27  75 S9        29.91F
HURON          PTCLDY    34  25  69 S3        29.91F
SISSETON         N/A     38  30  73 SE7       29.87F
ABERDEEN       PTCLDY    32  24  72 S9        29.90S WCI  24
MITCHELL       MOCLDY    48  22  35 SW13      29.93F
PIERRE         CLOUDY    38  28  67 CALM      29.92S
MOBRIDGE       CLOUDY    36  29  75 E3        29.86F
RAPID CITY     PTCLDY    42  21  43 W8        30.00S
$$

  *****  SOME WEATHER IN NEARBY STATES *****

CITY           SKY/WX    TMP DP  RH WIND       PRES   REMARKS
GLASGOW MT     CLEAR     43  32  65 W8        29.95R
GREAT FALLS MT MOCLDY    43  30  60 SW14      30.05S
CHEYENNE WY    CLEAR     45  15  30 W15       30.15R
SCOTTSBLUFF NE CLEAR     32  23  69 NW8       30.08R WCI  25
OMAHA NE       PTCLDY    38  28  67 SE9       30.11S
DES MOINES IA  MOSUNNY   40  25  55 SW6       30.12R
DAVENPORT IA   SUNNY     36  28  73 W9        30.10R
CHICAGO IL     MOSUNNY   38  29  70 W10       30.04R
EAU CLAIRE WI  CLOUDY    37  27  67 CALM      29.96S
LA CROSSE WI   PTSUNNY   39  29  67 S9        30.01R
$$

  *****  SOME NATIONAL WEATHER *****

CITY           SKY/WX    TMP DP  RH WIND       PRES   REMARKS
LA GUARDIA NY  CLOUDY    38  29  70 SW13      29.90F
RALEIGH NC     LGT RAIN  44  31  60 SW18      30.11R
ATLANTA GA     LGT RAIN  53  51  93 VRB3      30.11F
NEW ORLEANS LA PTSUNNY   65  61  87 CALM      30.25R FOG
OKLAHOMA CITY  PTCLDY    47  38  71 E7        30.19R
ALBUQUERQUE NM PTCLDY    50  24  36 NE7       30.24F
SALT LAKE CITY CLEAR     42  24  49 E8        30.20R
LOS ANGELES CA CLOUDY    58  57  97 W6        30.00S FOG
BOISE ID       CLEAR     45  29  53 E3        30.15S
SEATTLE WA     MOCLDY    52  48  86 S6        30.10F
$$

*** WEATHER ACROSS MANITOBA...SASKATCHEWAN AND ONTARIO ***
                ***ONTARIO***

CITY           SKY/WX    TMP DP  RH WIND       PRES   REMARKS
GERALDTON      FLURRIES  19  16  86 NE10G17   29.80  WCI   8
THUNDER BAY    MOSUNNY   32  25  74 NW13      29.86R WCI  22
SIOUX LOOKOUT  MOSUNNY   21  19  93 N2        29.86R
TORONTO        PTSUNNY   39  28  65 W31G38    29.68R
BIG TROUT LK   SUNNY     -6  -9  84 NW7       29.92R WCI -20
PICKLE LAKE    FLURRIES  14   9  79 VRB2      29.87R
DRYDEN         SUNNY     25  23  93 NE3       29.85S
KENORA         MOCLDY    32  25  74 SW3       29.86R
$$
                *** MANITOBA***

CITY           SKY/WX    TMP DP  RH WIND       PRES   REMARKS
BRANDON        MOCLDY    34  32  93 NE7       29.82F
DAUPHIN        CLOUDY    39  34  81 SW13      29.80S
ISLAND LAKE    PTCLDY     3   0  85 SE2       29.90S
PILOT MOUND      N/A     34  30  86 E5          N/A
THE PAS        FRZ RAIN  32  30  93 SE9       29.71F WCI  24
THOMPSON       CLOUDY    10   7  85 E5        29.83S WCI   2
WINNIPEG       MOCLDY    32  28  86 S3        29.85F
LYNN LAKE      CLOUDY    18  18 100 E3        29.73R FOG
CHURCHILL      MOCLDY    -4  -8  84 NW6       29.98  WCI -16
GILLAM         MOCLDY    -4  -9  77 CALM      29.95R
$$
                ***SASKATCHEWAN***

CITY           SKY/WX    TMP DP  RH WIND       PRES   REMARKS
ESTEVAN        PTCLDY    34  32  93 NW7       29.81R
KINDERSLEY     MOCLDY    37  32  81 W7        29.93R
LLOYDMINSTER   PTCLDY    37  28  70 W16       29.86S
PRINCE ALBERT  PTCLDY    37  34  87 W12       29.76R
REGINA         PTCLDY    34  34 100 W9        29.84R
YORKTON        PTCLDY    36  34  93 S8        29.78S
N. BATTLEFORD  CLEAR     37  32  81 W13G20    29.87R
LA RONGE       MOCLDY    36  34  93 CALM      29.69S
SASKATOON      MOCLDY    32  30  93 W9        29.86R WCI  24
SWIFT CURRENT  CLEAR     36  32  87 W10       29.92R
$$
NOTE: THESE ARE AUTOMATED STATIONS WITH LIMITED QUALITY CONTROL
      "FAIR" INDICATES FEW OR NO CLOUDS BELOW 12,000 FEET WITH NO
      SIGNIFICANT WEATHER AND/OR OBSTRUCTIONS TO VISIBILITY.
      SKY/WX - SKY CONDITION AND SIGNIFICANT WEATHER.
      TMP - AIR TEMPERATURE.    DP   - DEWPOINT TEMPERATURE.
      RH  - RELATIVE HUMIDITY.  PRES - PRESSURE.
      HX  - HEAT INDEX.         WCI  - WIND CHILL INDEX.
$


USA.gov is the U.S. government's official web portal to all federal, state and local government web resources and services.